Precipitable_Water
0.62 0.62 0.62 0.62 0.62 0.62 0.60 0.60 0.60 0.60 0.58 0.58 0.56 0.56 0.56 0.56 0.54 0.52 0.52 0.52 0.50 0.50 0.48 0.46 0.46 0.44 0.44 0.42 0.38 0.36 0.36 0.34 0.34 0.34 0.34 0.34 0.34 0.34 0.34 0.34 0.34 0.34 0.34 0.36 0.36 0.36 0.36 0.36 0.36 0.34 0.34 0.34 0.32 0.32 0.32 0.32 0.32 0.30 0.30 0.30 0.30 0.28 0.28 0.28 0.28 0.28 0.28 0.28 0.28
0.62 0.62 0.62 0.62 0.62 0.62 0.60 0.60 0.60 0.60 0.58 0.58 0.58 0.56 0.56 0.56 0.54 0.52 0.52 0.52 0.50 0.50 0.48 0.46 0.44 0.44 0.42 0.40 0.38 0.36 0.34 0.34 0.34 0.34 0.34 0.34 0.34 0.34 0.34 0.34 0.34 0.36 0.36 0.36 0.36 0.36 0.36 0.36 0.34 0.32 0.30 0.30 0.30 0.30 0.30 0.30 0.30 0.28 0.28 0.28 0.28 0.28 0.28 0.28 0.28 0.28 0.28 0.28 0.30
0.62 0.62 0.62 0.62 0.62 0.60 0.60 0.60 0.60 0.58 0.58 0.58 0.58 0.58 0.56 0.56 0.54 0.52 0.52 0.50 0.50 0.50 0.48 0.44 0.44 0.42 0.40 0.38 0.38 0.36 0.34 0.34 0.34 0.34 0.34 0.34 0.34 0.34 0.36 0.36 0.36 0.36 0.36 0.36 0.34 0.34 0.34 0.34 0.30 0.28 0.28 0.28 0.28 0.28 0.28 0.28 0.28 0.28 0.28 0.28 0.28 0.28 0.28 0.28 0.28 0.28 0.30 0.30 0.30
0.62 0.62 0.62 0.60 0.60 0.60 0.60 0.60 0.58 0.58 0.58 0.58 0.58 0.56 0.56 0.56 0.54 0.52 0.50 0.50 0.50 0.48 0.46 0.44 0.42 0.40 0.40 0.38 0.36 0.36 0.36 0.36 0.36 0.34 0.34 0.34 0.36 0.36 0.36 0.36 0.36 0.34 0.34 0.34 0.32 0.32 0.30 0.28 0.28 0.28 0.26 0.26 0.26 0.26 0.26 0.26 0.28 0.28 0.28 0.28 0.30 0.30 0.28 0.28 0.30 0.30 0.30 0.28 0.28
0.60 0.62 0.62 0.60 0.60 0.60 0.60 0.60 0.58 0.58 0.58 0.58 0.56 0.56 0.56 0.56 0.52 0.52 0.50 0.50 0.48 0.48 0.46 0.44 0.42 0.40 0.38 0.36 0.36 0.36 0.36 0.36 0.36 0.36 0.36 0.36 0.36 0.34 0.34 0.34 0.34 0.32 0.32 0.30 0.30 0.30 0.28 0.28 0.26 0.26 0.26 0.26 0.28 0.28 0.28 0.28 0.28 0.28 0.28 0.28 0.30 0.30 0.28 0.28 0.28 0.28 0.28 0.28 0.28
0.60 0.62 0.62 0.62 0.60 0.60 0.60 0.60 0.58 0.58 0.58 0.58 0.56 0.56 0.54 0.54 0.52 0.50 0.48 0.48 0.48 0.46 0.46 0.42 0.40 0.38 0.36 0.36 0.36 0.36 0.36 0.36 0.36 0.36 0.36 0.34 0.34 0.32 0.32 0.32 0.30 0.30 0.30 0.28 0.28 0.28 0.28 0.28 0.28 0.28 0.28 0.28 0.28 0.28 0.28 0.30 0.30 0.28 0.28 0.28 0.28 0.28 0.28 0.28 0.28 0.28 0.28 0.28 0.26
0.60 0.62 0.62 0.62 0.60 0.60 0.60 0.60 0.58 0.58 0.58 0.56 0.56 0.54 0.52 0.52 0.50 0.48 0.48 0.48 0.46 0.46 0.44 0.40 0.38 0.36 0.36 0.36 0.36 0.36 0.36 0.36 0.36 0.34 0.34 0.32 0.32 0.30 0.30 0.28 0.28 0.28 0.28 0.28 0.28 0.28 0.28 0.28 0.28 0.28 0.28 0.28 0.28 0.30 0.30 0.30 0.30 0.28 0.28 0.28 0.28 0.28 0.28 0.28 0.28 0.28 0.26 0.26 0.26
0.62 0.62 0.62 0.62 0.60 0.60 0.60 0.60 0.58 0.58 0.56 0.56 0.54 0.52 0.52 0.50 0.50 0.48 0.48 0.46 0.46 0.44 0.40 0.40 0.38 0.36 0.36 0.36 0.36 0.36 0.36 0.34 0.34 0.32 0.32 0.30 0.30 0.28 0.28 0.28 0.28 0.28 0.28 0.28 0.28 0.28 0.28 0.30 0.30 0.28 0.28 0.28 0.28 0.30 0.30 0.30 0.30 0.28 0.28 0.26 0.28 0.28 0.28 0.26 0.26 0.26 0.26 0.26 0.24
0.62 0.62 0.62 0.62 0.60 0.60 0.60 0.58 0.58 0.56 0.56 0.54 0.52 0.52 0.50 0.50 0.48 0.48 0.46 0.44 0.42 0.42 0.40 0.38 0.38 0.38 0.36 0.36 0.36 0.36 0.34 0.32 0.32 0.30 0.30 0.30 0.28 0.28 0.28 0.28 0.28 0.28 0.28 0.28 0.28 0.30 0.30 0.30 0.30 0.30 0.30 0.30 0.28 0.28 0.30 0.30 0.28 0.28 0.28 0.26 0.26 0.26 0.26 0.26 0.26 0.26 0.26 0.26 0.24
0.60 0.60 0.60 0.60 0.60 0.60 0.58 0.58 0.58 0.56 0.54 0.52 0.52 0.50 0.50 0.50 0.48 0.46 0.44 0.42 0.42 0.40 0.38 0.38 0.38 0.38 0.36 0.36 0.36 0.34 0.34 0.32 0.30 0.30 0.30 0.28 0.28 0.28 0.28 0.28 0.28 0.28 0.28 0.28 0.30 0.30 0.30 0.30 0.30 0.28 0.30 0.30 0.30 0.28 0.28 0.28 0.28 0.28 0.26 0.26 0.26 0.26 0.26 0.26 0.26 0.26 0.26 0.26 0.26
0.60 0.60 0.60 0.60 0.60 0.58 0.58 0.56 0.54 0.54 0.52 0.50 0.50 0.50 0.48 0.48 0.46 0.44 0.44 0.42 0.40 0.38 0.38 0.38 0.38 0.36 0.36 0.34 0.34 0.34 0.32 0.32 0.30 0.30 0.30 0.28 0.28 0.28 0.28 0.28 0.28 0.28 0.28 0.30 0.30 0.30 0.30 0.30 0.28 0.28 0.28 0.28 0.28 0.28 0.28 0.28 0.28 0.26 0.26 0.26 0.26 0.26 0.26 0.26 0.26 0.26 0.26 0.26 0.26
0.60 0.60 0.60 0.60 0.58 0.58 0.56 0.54 0.54 0.52 0.50 0.50 0.48 0.48 0.48 0.46 0.46 0.44 0.42 0.40 0.40 0.38 0.38 0.38 0.38 0.36 0.34 0.34 0.34 0.32 0.32 0.32 0.30 0.30 0.30 0.30 0.28 0.28 0.28 0.28 0.28 0.28 0.28 0.30 0.30 0.30 0.30 0.28 0.28 0.28 0.28 0.28 0.28 0.28 0.28 0.28 0.26 0.26 0.26 0.26 0.26 0.26 0.24 0.24 0.24 0.26 0.26 0.26 0.26
0.62 0.60 0.60 0.58 0.58 0.56 0.54 0.52 0.52 0.50 0.48 0.48 0.48 0.48 0.46 0.46 0.44 0.44 0.42 0.40 0.38 0.38 0.38 0.38 0.36 0.36 0.34 0.34 0.32 0.32 0.32 0.32 0.30 0.30 0.30 0.30 0.30 0.30 0.30 0.30 0.30 0.30 0.30 0.30 0.30 0.30 0.28 0.28 0.28 0.28 0.28 0.28 0.28 0.28 0.28 0.28 0.26 0.26 0.26 0.24 0.24 0.24 0.24 0.24 0.24 0.26 0.26 0.26 0.26
0.60 0.60 0.58 0.56 0.56 0.54 0.52 0.52 0.50 0.50 0.48 0.48 0.46 0.46 0.46 0.44 0.44 0.42 0.40 0.40 0.38 0.38 0.38 0.36 0.36 0.36 0.34 0.34 0.32 0.32 0.32 0.32 0.30 0.30 0.30 0.30 0.30 0.30 0.30 0.30 0.30 0.30 0.28 0.30 0.30 0.28 0.28 0.28 0.28 0.28 0.28 0.28 0.28 0.28 0.28 0.26 0.26 0.26 0.26 0.24 0.24 0.24 0.24 0.24 0.24 0.26 0.26 0.26 0.26
0.60 0.58 0.56 0.54 0.54 0.52 0.50 0.50 0.50 0.48 0.48 0.46 0.46 0.46 0.44 0.44 0.44 0.42 0.40 0.38 0.38 0.38 0.36 0.36 0.36 0.34 0.34 0.34 0.32 0.32 0.32 0.32 0.30 0.30 0.30 0.30 0.30 0.30 0.30 0.30 0.30 0.28 0.28 0.28 0.28 0.28 0.28 0.28 0.28 0.28 0.28 0.26 0.26 0.26 0.26 0.26 0.26 0.26 0.26 0.24 0.24 0.24 0.24 0.24 0.24 0.26 0.26 0.26 0.24
0.58 0.56 0.54 0.54 0.52 0.50 0.50 0.50 0.50 0.48 0.48 0.46 0.46 0.46 0.44 0.44 0.42 0.40 0.40 0.38 0.38 0.36 0.36 0.36 0.34 0.34 0.34 0.34 0.32 0.32 0.32 0.32 0.30 0.30 0.30 0.30 0.30 0.30 0.30 0.30 0.28 0.28 0.28 0.28 0.28 0.28 0.28 0.28 0.28 0.28 0.28 0.26 0.26 0.26 0.26 0.26 0.26 0.26 0.26 0.26 0.26 0.26 0.26 0.26 0.26 0.26 0.26 0.26 0.26
0.56 0.54 0.52 0.52 0.50 0.50 0.50 0.50 0.48 0.48 0.48 0.46 0.46 0.44 0.44 0.42 0.42 0.40 0.38 0.38 0.36 0.36 0.36 0.36 0.34 0.34 0.34 0.32 0.32 0.32 0.32 0.32 0.30 0.30 0.30 0.30 0.30 0.30 0.30 0.28 0.28 0.28 0.28 0.28 0.28 0.28 0.28 0.28 0.28 0.28 0.28 0.26 0.26 0.26 0.26 0.26 0.26 0.26 0.26 0.26 0.26 0.26 0.26 0.26 0.26 0.26 0.26 0.26 0.26
0.54 0.52 0.52 0.50 0.50 0.50 0.50 0.50 0.48 0.48 0.46 0.46 0.46 0.44 0.42 0.42 0.40 0.38 0.38 0.38 0.36 0.36 0.36 0.34 0.34 0.34 0.34 0.32 0.32 0.32 0.32 0.30 0.30 0.30 0.30 0.30 0.30 0.30 0.30 0.30 0.30 0.30 0.28 0.28 0.28 0.28 0.28 0.28 0.28 0.28 0.28 0.26 0.26 0.26 0.26 0.26 0.26 0.26 0.26 0.26 0.26 0.26 0.26 0.26 0.26 0.26 0.26 0.26 0.26
0.52 0.52 0.52 0.50 0.50 0.50 0.50 0.50 0.48 0.48 0.46 0.46 0.44 0.44 0.42 0.40 0.40 0.38 0.38 0.38 0.36 0.36 0.36 0.34 0.34 0.34 0.34 0.32 0.32 0.32 0.32 0.32 0.30 0.30 0.30 0.30 0.30 0.30 0.30 0.30 0.30 0.30 0.30 0.28 0.28 0.28 0.28 0.28 0.28 0.28 0.26 0.26 0.26 0.26 0.26 0.28 0.28 0.28 0.28 0.26 0.26 0.26 0.26 0.26 0.26 0.26 0.26 0.26 0.26
0.52 0.52 0.52 0.52 0.50 0.50 0.50 0.50 0.48 0.48 0.46 0.44 0.44 0.42 0.40 0.40 0.38 0.38 0.36 0.36 0.36 0.36 0.36 0.34 0.34 0.34 0.32 0.32 0.32 0.32 0.32 0.32 0.30 0.30 0.30 0.30 0.30 0.30 0.30 0.30 0.30 0.30 0.28 0.28 0.28 0.28 0.28 0.28 0.28 0.26 0.26 0.26 0.26 0.26 0.28 0.28 0.28 0.28 0.28 0.26 0.26 0.26 0.26 0.26 0.26 0.26 0.26 0.26 0.26
0.52 0.52 0.52 0.52 0.52 0.50 0.50 0.50 0.48 0.46 0.44 0.44 0.42 0.40 0.40 0.38 0.38 0.38 0.38 0.38 0.36 0.36 0.36 0.34 0.34 0.32 0.32 0.32 0.30 0.30 0.30 0.30 0.30 0.30 0.30 0.30 0.30 0.30 0.30 0.30 0.30 0.30 0.28 0.28 0.28 0.28 0.28 0.28 0.28 0.26 0.26 0.28 0.28 0.28 0.28 0.28 0.28 0.28 0.28 0.26 0.26 0.26 0.26 0.26 0.26 0.26 0.26 0.26 0.26
0.54 0.54 0.54 0.52 0.52 0.50 0.50 0.48 0.48 0.46 0.44 0.42 0.40 0.40 0.38 0.38 0.38 0.38 0.38 0.38 0.36 0.36 0.34 0.34 0.34 0.32 0.32 0.32 0.30 0.30 0.30 0.30 0.30 0.30 0.30 0.30 0.30 0.30 0.30 0.30 0.30 0.28 0.28 0.28 0.28 0.28 0.28 0.28 0.28 0.28 0.28 0.28 0.28 0.28 0.28 0.28 0.28 0.28 0.26 0.26 0.26 0.26 0.26 0.26 0.26 0.26 0.26 0.26 0.26
0.54 0.54 0.54 0.52 0.52 0.50 0.50 0.48 0.46 0.44 0.42 0.40 0.40 0.38 0.38 0.38 0.38 0.38 0.38 0.36 0.36 0.34 0.34 0.34 0.32 0.32 0.32 0.30 0.30 0.30 0.30 0.30 0.30 0.30 0.30 0.30 0.30 0.30 0.30 0.30 0.28 0.28 0.28 0.28 0.28 0.28 0.28 0.28 0.28 0.28 0.30 0.30 0.30 0.30 0.28 0.28 0.28 0.28 0.26 0.26 0.26 0.26 0.26 0.26 0.26 0.26 0.26 0.26 0.26
0.56 0.54 0.54 0.52 0.50 0.48 0.48 0.46 0.44 0.42 0.40 0.40 0.38 0.38 0.38 0.38 0.38 0.38 0.36 0.36 0.34 0.34 0.32 0.32 0.32 0.32 0.30 0.30 0.30 0.30 0.30 0.30 0.30 0.30 0.30 0.30 0.30 0.30 0.30 0.30 0.28 0.28 0.28 0.28 0.28 0.28 0.28 0.28 0.28 0.28 0.30 0.30 0.30 0.30 0.28 0.28 0.28 0.28 0.28 0.26 0.26 0.26 0.26 0.26 0.26 0.26 0.26 0.26 0.26
0.56 0.54 0.52 0.50 0.48 0.48 0.46 0.44 0.42 0.40 0.40 0.38 0.38 0.38 0.38 0.38 0.38 0.36 0.36 0.34 0.34 0.32 0.32 0.32 0.30 0.30 0.30 0.30 0.30 0.30 0.30 0.30 0.30 0.30 0.28 0.28 0.30 0.30 0.28 0.28 0.28 0.28 0.28 0.28 0.28 0.28 0.28 0.30 0.30 0.30 0.30 0.28 0.28 0.28 0.28 0.28 0.28 0.28 0.28 0.26 0.26 0.26 0.26 0.26 0.26 0.26 0.26 0.26 0.26
0.54 0.52 0.50 0.48 0.46 0.46 0.44 0.42 0.40 0.40 0.38 0.38 0.38 0.38 0.38 0.36 0.36 0.36 0.34 0.32 0.32 0.32 0.30 0.30 0.30 0.30 0.30 0.30 0.30 0.30 0.30 0.30 0.30 0.30 0.30 0.28 0.28 0.28 0.28 0.28 0.28 0.28 0.28 0.28 0.28 0.28 0.28 0.30 0.28 0.28 0.28 0.28 0.28 0.28 0.28 0.28 0.28 0.28 0.28 0.26 0.26 0.26 0.26 0.26 0.26 0.26 0.26 0.26 0.26
0.52 0.50 0.48 0.46 0.44 0.44 0.42 0.42 0.40 0.38 0.38 0.38 0.38 0.36 0.36 0.36 0.36 0.34 0.34 0.32 0.32 0.30 0.30 0.30 0.30 0.30 0.30 0.30 0.30 0.30 0.28 0.30 0.30 0.30 0.30 0.28 0.28 0.28 0.28 0.28 0.26 0.26 0.26 0.28 0.28 0.28 0.28 0.28 0.28 0.28 0.28 0.28 0.28 0.28 0.28 0.26 0.28 0.28 0.26 0.26 0.26 0.26 0.26 0.26 0.24 0.24 0.24 0.26 0.26
0.50 0.48 0.46 0.44 0.42 0.42 0.40 0.40 0.38 0.38 0.38 0.38 0.36 0.36 0.36 0.36 0.34 0.34 0.32 0.32 0.30 0.30 0.30 0.30 0.30 0.30 0.30 0.30 0.30 0.28 0.30 0.30 0.30 0.30 0.28 0.28 0.28 0.28 0.26 0.26 0.26 0.26 0.26 0.26 0.26 0.28 0.28 0.26 0.26 0.28 0.28 0.28 0.28 0.28 0.26 0.26 0.26 0.26 0.26 0.26 0.26 0.26 0.26 0.24 0.24 0.24 0.24 0.24 0.24
0.46 0.46 0.44 0.42 0.42 0.40 0.40 0.40 0.38 0.38 0.38 0.36 0.36 0.36 0.36 0.34 0.34 0.32 0.32 0.30 0.30 0.30 0.30 0.30 0.30 0.30 0.30 0.28 0.28 0.28 0.30 0.28 0.28 0.28 0.28 0.28 0.28 0.26 0.26 0.26 0.26 0.26 0.26 0.26 0.26 0.26 0.26 0.26 0.26 0.26 0.26 0.28 0.28 0.28 0.26 0.26 0.26 0.26 0.26 0.26 0.26 0.24 0.24 0.24 0.24 0.24 0.24 0.24 0.24
0.44 0.42 0.42 0.42 0.40 0.40 0.40 0.38 0.38 0.38 0.36 0.36 0.36 0.34 0.34 0.32 0.32 0.32 0.30 0.30 0.30 0.30 0.30 0.30 0.30 0.28 0.28 0.28 0.28 0.28 0.28 0.28 0.28 0.28 0.28 0.26 0.26 0.26 0.26 0.24 0.24 0.24 0.24 0.24 0.26 0.24 0.24 0.26 0.26 0.26 0.26 0.26 0.28 0.26 0.26 0.26 0.26 0.26 0.24 0.24 0.24 0.24 0.24 0.24 0.24 0.24 0.24 0.24 0.24
0.44 0.42 0.42 0.40 0.40 0.40 0.38 0.38 0.38 0.36 0.36 0.36 0.34 0.34 0.32 0.32 0.30 0.30 0.30 0.30 0.30 0.30 0.30 0.30 0.30 0.28 0.28 0.28 0.28 0.28 0.28 0.28 0.28 0.28 0.26 0.26 0.26 0.24 0.24 0.24 0.24 0.24 0.24 0.24 0.24 0.24 0.24 0.24 0.24 0.26 0.26 0.26 0.26 0.26 0.26 0.26 0.26 0.24 0.24 0.24 0.24 0.24 0.24 0.24 0.24 0.24 0.24 0.26 0.26
0.44 0.42 0.42 0.40 0.38 0.38 0.38 0.36 0.36 0.36 0.34 0.34 0.32 0.32 0.32 0.30 0.30 0.30 0.30 0.30 0.30 0.30 0.30 0.28 0.28 0.28 0.28 0.28 0.28 0.28 0.28 0.28 0.28 0.26 0.26 0.26 0.24 0.24 0.24 0.24 0.24 0.22 0.24 0.24 0.24 0.24 0.24 0.24 0.24 0.24 0.26 0.26 0.26 0.26 0.26 0.24 0.24 0.24 0.24 0.24 0.24 0.24 0.24 0.24 0.24 0.26 0.26 0.26 0.24
0.42 0.42 0.40 0.38 0.38 0.36 0.36 0.36 0.34 0.34 0.32 0.32 0.32 0.30 0.30 0.30 0.30 0.30 0.30 0.30 0.30 0.30 0.28 0.28 0.28 0.28 0.28 0.28 0.28 0.28 0.28 0.26 0.26 0.26 0.26 0.26 0.24 0.24 0.24 0.22 0.22 0.22 0.22 0.22 0.22 0.22 0.24 0.24 0.24 0.24 0.24 0.26 0.26 0.24 0.24 0.24 0.24 0.24 0.24 0.24 0.24 0.24 0.24 0.26 0.26 0.26 0.26 0.26 0.24
0.42 0.40 0.38 0.38 0.36 0.36 0.34 0.34 0.32 0.32 0.32 0.30 0.30 0.30 0.30 0.30 0.30 0.28 0.28 0.30 0.30 0.30 0.30 0.30 0.28 0.28 0.28 0.28 0.28 0.28 0.26 0.26 0.26 0.26 0.26 0.24 0.24 0.24 0.22 0.22 0.22 0.22 0.22 0.22 0.22 0.22 0.22 0.24 0.24 0.24 0.24 0.24 0.24 0.24 0.24 0.24 0.24 0.24 0.24 0.24 0.24 0.24 0.24 0.26 0.26 0.26 0.26 0.24 0.24
0.40 0.38 0.38 0.36 0.36 0.34 0.34 0.34 0.32 0.30 0.30 0.30 0.30 0.30 0.30 0.30 0.28 0.28 0.28 0.30 0.30 0.30 0.28 0.28 0.28 0.28 0.28 0.28 0.28 0.28 0.26 0.26 0.26 0.26 0.24 0.24 0.24 0.22 0.22 0.22 0.22 0.22 0.22 0.22 0.22 0.22 0.22 0.22 0.22 0.24 0.24 0.24 0.24 0.24 0.24 0.24 0.22 0.22 0.24 0.24 0.24 0.24 0.24 0.24 0.26 0.24 0.24 0.24 0.24
0.38 0.38 0.36 0.34 0.34 0.34 0.32 0.32 0.30 0.30 0.30 0.28 0.28 0.28 0.28 0.28 0.28 0.30 0.30 0.30 0.30 0.28 0.28 0.28 0.28 0.28 0.28 0.28 0.28 0.26 0.26 0.26 0.26 0.24 0.24 0.24 0.24 0.22 0.22 0.20 0.20 0.20 0.20 0.22 0.22 0.22 0.22 0.22 0.22 0.22 0.24 0.24 0.24 0.24 0.24 0.22 0.22 0.22 0.24 0.24 0.24 0.24 0.24 0.24 0.24 0.24 0.24 0.24 0.24
0.38 0.36 0.34 0.34 0.32 0.32 0.32 0.30 0.30 0.28 0.28 0.28 0.28 0.28 0.28 0.28 0.28 0.30 0.30 0.30 0.30 0.28 0.28 0.28 0.28 0.26 0.26 0.26 0.26 0.26 0.26 0.26 0.26 0.24 0.24 0.24 0.24 0.22 0.20 0.20 0.20 0.20 0.20 0.20 0.22 0.22 0.22 0.22 0.22 0.24 0.24 0.24 0.24 0.24 0.24 0.22 0.22 0.22 0.22 0.24 0.24 0.24 0.24 0.24 0.24 0.24 0.24 0.24 0.26
0.36 0.34 0.34 0.32 0.32 0.30 0.30 0.30 0.28 0.28 0.28 0.28 0.28 0.28 0.28 0.28 0.28 0.28 0.30 0.30 0.28 0.28 0.28 0.26 0.26 0.26 0.26 0.26 0.26 0.26 0.26 0.26 0.26 0.24 0.24 0.24 0.24 0.22 0.22 0.20 0.20 0.20 0.20 0.20 0.22 0.22 0.22 0.22 0.22 0.24 0.24 0.24 0.24 0.24 0.24 0.22 0.22 0.22 0.22 0.24 0.24 0.24 0.24 0.24 0.24 0.24 0.24 0.26 0.26
0.34 0.34 0.32 0.32 0.30 0.30 0.30 0.28 0.28 0.28 0.28 0.28 0.28 0.28 0.28 0.28 0.28 0.28 0.28 0.28 0.28 0.28 0.28 0.26 0.26 0.26 0.26 0.26 0.26 0.26 0.26 0.26 0.26 0.24 0.24 0.24 0.22 0.22 0.22 0.20 0.20 0.20 0.20 0.20 0.20 0.22 0.22 0.22 0.22 0.24 0.24 0.24 0.24 0.24 0.24 0.24 0.22 0.22 0.22 0.24 0.24 0.24 0.24 0.24 0.26 0.26 0.26 0.26 0.26
0.34 0.32 0.32 0.32 0.30 0.30 0.30 0.28 0.28 0.28 0.28 0.28 0.28 0.28 0.28 0.28 0.28 0.28 0.28 0.28 0.28 0.28 0.28 0.26 0.26 0.26 0.26 0.26 0.26 0.26 0.24 0.24 0.24 0.24 0.24 0.24 0.22 0.22 0.22 0.20 0.20 0.20 0.20 0.20 0.20 0.22 0.22 0.22 0.22 0.24 0.24 0.24 0.24 0.24 0.24 0.24 0.24 0.22 0.22 0.24 0.24 0.24 0.24 0.24 0.26 0.26 0.26 0.26 0.26
0.32 0.32 0.32 0.30 0.30 0.30 0.28 0.28 0.28 0.28 0.28 0.28 0.28 0.28 0.28 0.28 0.28 0.28 0.28 0.28 0.28 0.28 0.28 0.26 0.26 0.26 0.26 0.26 0.26 0.26 0.24 0.24 0.24 0.24 0.24 0.24 0.22 0.22 0.20 0.20 0.20 0.18 0.18 0.20 0.20 0.22 0.22 0.22 0.24 0.24 0.24 0.26 0.24 0.24 0.24 0.24 0.24 0.22 0.22 0.24 0.24 0.24 0.24 0.24 0.26 0.26 0.26 0.26 0.28
Wind_Speed
20 20 21 21 22 22 23 23 24 24 25 25 25 26 26 26 26 27 27 27 27 28 28 28 29 29 30 30 31 31 32 32 33 33 34 34 35 36 36 37 37 38 39 39 40 40 41 41 42 42 43 43 43 44 44 45 45 45 45 45 46 46 46 46 46 46 46 46 46
21 21 22 22 23 23 24 24 25 25 26 26 26 27 27 27 27 27 28 28 28 28 29 29 29 30 30 31 31 32 32 33 33 34 34 35 36 36 37 38 38 39 39 40 41 41 42 42 43 43 43 44 44 44 45 45 45 45 45 46 46 46 46 46 46 46 46 46 46
21 22 23 23 24 24 25 25 26 26 26 27 27 27 27 28 28 28 28 28 29 29 29 29 30 30 31 31 32 32 33 33 34 34 35 36 37 37 38 39 39 40 40 41 42 42 43 43 43 43 44 44 44 45 45 45 45 45 45 46 46 46 46 46 46 46 46 46 46
22 23 23 24 24 25 25 26 26 27 27 27 28 28 28 28 28 28 29 29 29 29 30 30 31 31 32 32 33 33 34 34 35 35 36 37 38 38 39 40 40 41 41 42 42 43 43 43 44 44 44 44 45 45 45 45 45 45 45 45 46 46 46 46 46 46 46 46 47
23 24 24 25 25 26 26 27 27 27 28 28 28 28 28 29 29 29 29 29 29 30 30 31 31 32 32 33 33 34 34 35 36 36 37 38 39 39 40 41 41 42 42 43 43 43 44 44 44 44 44 45 45 45 45 45 45 45 45 46 46 46 46 46 46 47 47 47 47
24 25 25 26 26 26 27 27 28 28 28 28 28 29 29 29 29 29 29 29 30 31 31 32 32 33 33 34 34 35 35 36 37 37 38 39 39 40 41 41 42 42 43 43 43 44 44 44 44 44 44 45 45 45 45 45 45 46 46 46 46 46 46 47 47 47 47 47 48
25 25 26 26 27 27 28 28 28 28 29 29 29 29 29 29 29 29 30 30 31 31 32 32 33 33 34 34 35 35 36 37 38 38 39 39 40 41 41 42 42 42 43 43 43 44 44 44 44 44 45 45 45 45 46 46 46 46 46 47 47 47 47 47 47 47 48 48 48
26 26 27 27 27 28 28 29 29 29 29 29 29 29 29 29 29 30 30 31 31 32 32 33 33 34 34 35 35 36 37 38 38 39 39 40 40 41 41 42 42 43 43 43 44 44 44 44 44 45 45 45 45 46 46 46 46 46 47 47 47 47 47 47 47 48 48 48 49
27 27 27 28 28 28 29 29 29 29 29 29 29 29 29 30 30 30 31 31 32 32 33 33 34 34 35 36 36 37 38 38 39 39 40 40 41 41 42 42 42 43 43 44 44 44 44 44 45 45 45 45 46 46 46 46 47 47 47 47 48 48 48 48 48 48 48 48 49
27 28 28 28 29 29 29 29 29 29 29 29 29 30 30 30 30 31 31 32 32 33 33 34 34 35 36 36 37 38 38 39 39 40 40 41 41 41 42 42 42 43 43 44 44 44 45 45 45 45 46 46 46 47 47 47 47 48 48 48 48 48 48 48 48 48 48 48 49
28 28 29 29 29 29 29 29 29 29 29 29 30 30 30 30 31 31 32 32 33 33 34 35 35 36 36 37 38 38 39 39 40 40 40 41 41 42 42 43 43 43 44 44 44 45 45 45 46 46 46 46 47 47 47 48 48 48 48 48 48 49 49 49 48 48 48 49 49
28 29 29 29 29 29 29 29 29 29 29 30 30 30 30 31 31 32 32 33 33 34 35 35 36 36 37 38 38 39 39 40 40 40 41 41 42 42 43 43 43 44 44 45 45 45 45 46 46 47 47 47 47 47 48 48 48 48 49 49 49 49 49 49 49 49 49 49 49
28 29 29 29 29 29 29 29 29 29 29 30 30 30 31 31 32 32 33 33 34 35 35 36 37 37 38 38 39 39 40 40 41 41 41 42 42 43 43 43 44 44 45 45 45 45 46 46 47 47 48 48 48 48 48 48 49 49 49 49 49 49 49 50 49 49 49 49 49
29 29 29 29 29 29 29 29 29 29 30 30 30 31 31 32 32 33 33 34 35 35 36 37 37 38 38 39 39 40 40 41 41 41 42 42 43 43 44 44 44 45 45 45 46 46 46 47 47 48 48 48 49 49 49 49 49 49 49 50 50 50 50 50 50 50 50 50 50
29 29 29 29 29 29 29 29 29 30 30 30 31 31 32 32 33 33 34 35 35 36 37 37 38 39 39 40 40 40 41 41 41 42 42 43 43 44 44 45 45 45 46 46 46 46 47 47 48 48 48 49 49 49 49 49 49 49 49 50 50 50 50 50 50 50 50 50 50
29 29 29 29 29 29 29 29 29 30 30 31 31 32 32 33 34 34 35 35 36 37 37 38 39 39 40 40 40 41 41 41 42 42 43 43 44 44 45 45 46 46 46 47 47 47 47 48 48 48 49 49 49 50 50 50 50 50 50 50 50 50 50 50 50 50 50 50 49
29 29 29 29 29 29 29 29 30 30 30 31 32 32 33 34 34 35 35 36 37 37 38 39 39 39 40 40 41 41 41 42 42 43 43 44 44 45 45 46 46 46 47 47 48 48 48 48 49 49 49 49 50 50 50 50 50 50 50 50 50 50 50 50 50 50 50 49 49
29 29 29 29 29 29 29 30 30 30 31 32 32 33 34 34 35 36 36 37 37 38 39 39 39 40 40 41 41 41 42 42 43 43 44 44 45 45 46 46 47 47 47 48 48 48 49 49 49 49 49 50 50 50 50 50 50 50 50 50 50 50 50 50 50 49 49 49 49
28 29 29 29 29 29 29 30 30 31 31 32 33 34 34 35 35 36 37 37 38 38 39 39 40 40 40 41 41 42 42 43 43 44 44 45 45 46 46 47 47 47 48 48 48 49 49 49 50 50 50 50 50 50 50 50 50 50 50 50 50 50 50 50 49 49 49 49 49
28 28 28 29 29 29 30 30 31 31 32 33 33 34 35 35 36 37 37 38 38 39 39 40 40 40 41 41 42 42 43 43 44 44 45 45 46 46 47 47 47 48 48 48 49 49 49 50 50 50 50 50 50 50 50 50 50 50 50 50 50 50 50 50 49 49 49 49 50
28 28 29 29 29 30 30 30 31 32 33 33 34 35 35 36 37 37 38 38 39 39 39 40 40 41 41 42 42 43 43 44 44 45 45 46 46 47 47 47 48 48 48 49 49 49 50 50 50 50 50 50 50 50 50 50 50 50 50 50 50 50 50 50 50 50 50 50 50
28 28 29 29 29 30 30 31 32 32 33 34 35 35 36 37 37 38 38 39 39 39 40 40 41 41 42 42 43 43 44 44 45 45 46 46 47 47 47 48 48 48 49 49 49 50 50 50 50 50 50 50 50 50 50 50 50 50 50 50 50 50 50 50 50 50 50 50 50
28 29 29 29 30 30 31 32 32 33 34 35 35 36 37 37 38 38 39 39 39 40 40 40 41 41 42 42 43 44 44 45 45 46 46 46 47 47 48 48 48 49 49 49 49 50 50 50 50 50 50 50 50 50 50 50 50 50 50 51 51 51 51 51 50 50 51 51 51
28 29 29 30 30 31 32 32 33 34 35 35 36 36 37 38 38 38 39 39 40 40 40 41 41 42 42 43 43 44 45 45 46 46 47 47 47 47 48 48 48 49 49 49 49 50 50 50 50 50 50 50 50 50 50 50 50 50 50 51 51 51 51 51 51 51 51 51 51
29 29 30 30 31 32 32 33 34 34 35 36 36 37 37 38 38 39 39 40 40 40 41 41 42 42 43 43 44 44 45 45 46 47 47 47 48 48 48 48 49 49 49 49 50 50 50 50 50 50 50 50 50 50 50 50 50 50 51 51 51 51 52 52 52 52 52 52 52
29 30 30 31 32 32 33 34 34 35 36 36 37 37 38 38 39 39 39 40 40 41 41 42 42 43 43 44 44 45 45 46 46 47 47 48 48 48 48 48 49 49 49 49 50 50 51 51 51 50 50 50 50 50 50 51 51 51 51 51 51 52 52 52 52 52 52 52 52
30 30 31 32 32 33 34 34 35 35 36 37 37 38 38 39 39 39 40 40 41 41 42 42 43 43 44 44 45 45 46 46 46 47 47 48 48 48 48 49 49 49 49 49 50 50 51 51 51 51 51 50 50 50 51 51 51 51 51 51 52 52 52 52 52 53 53 53 53
30 31 32 32 33 34 34 35 35 36 37 37 38 38 38 39 39 40 40 41 41 42 42 42 43 43 44 44 45 46 46 46 47 47 47 48 48 48 48 49 49 49 49 50 50 50 51 51 51 51 51 51 50 50 51 51 52 52 52 52 52 52 52 52 52 53 53 53 53
31 32 32 33 34 34 35 35 36 36 37 37 38 38 39 39 40 40 40 41 41 42 42 43 43 44 44 45 45 46 46 47 47 47 48 48 48 48 48 49 49 49 49 50 50 50 51 51 51 51 51 51 51 51 51 51 52 52 52 52 52 52 52 52 52 53 53 53 53
32 32 33 33 34 35 35 36 36 37 37 38 38 38 39 39 40 40 41 41 42 42 43 43 44 44 45 45 46 46 47 47 47 47 48 48 48 48 48 49 49 49 49 50 50 51 51 51 51 51 52 52 51 51 51 51 52 52 52 52 52 52 52 52 52 53 53 53 54
32 33 33 34 35 35 36 36 37 37 37 38 38 39 39 40 40 41 41 42 42 43 43 44 44 45 45 46 46 46 47 47 47 47 48 48 48 48 49 49 49 49 49 50 50 51 51 51 52 52 52 52 52 51 51 52 52 52 52 52 52 52 52 52 52 52 53 53 54
33 33 34 34 35 36 36 37 37 37 38 38 39 39 40 40 41 41 41 42 43 43 44 44 45 45 46 46 46 47 47 47 47 48 48 48 48 48 49 49 49 49 49 50 50 51 51 51 52 52 52 52 52 52 51 51 51 51 51 51 51 51 51 52 52 52 53 54 55
33 34 34 35 36 36 37 37 37 38 38 38 39 39 40 40 41 41 42 42 43 44 44 45 45 46 46 46 47 47 47 47 48 48 48 48 48 48 49 49 49 49 50 50 51 51 51 52 52 52 52 53 52 52 51 51 51 51 51 51 51 51 51 52 52 53 54 55 55
34 34 35 35 36 37 37 37 38 38 38 39 39 40 40 41 41 42 43 43 44 44 44 45 45 46 46 46 47 47 47 48 48 48 48 48 48 48 49 49 49 49 50 51 51 51 52 52 52 52 53 52 52 51 51 51 51 51 51 51 51 51 51 52 52 53 54 55 56
34 35 35 36 36 37 37 38 38 38 39 39 40 40 41 41 42 43 43 44 44 45 45 45 46 46 46 47 47 47 47 48 48 48 48 48 48 49 49 49 49 50 50 51 51 52 52 52 52 52 52 52 51 51 51 51 51 51 51 51 51 51 52 52 53 54 54 55 55
35 35 36 36 37 37 38 38 38 39 39 40 40 41 42 42 43 43 44 44 45 45 45 46 46 46 47 47 47 47 47 48 48 48 48 48 49 49 49 49 50 50 50 51 51 52 52 52 52 52 52 51 51 50 50 50 50 50 51 51 51 52 52 53 53 54 54 54 54
35 35 36 37 37 38 38 38 39 39 40 40 41 42 42 43 43 44 44 44 45 45 46 46 46 47 47 47 47 47 47 48 48 48 49 49 49 49 50 50 50 50 51 51 52 52 52 52 52 52 52 51 50 50 50 50 50 50 51 51 52 52 53 53 53 53 53 53 52
35 36 36 37 37 38 38 39 39 40 40 41 42 42 42 43 44 44 44 45 45 46 46 46 47 47 47 47 47 48 48 48 48 48 49 49 49 49 50 50 50 50 51 51 52 52 52 52 52 52 51 50 50 50 50 50 50 51 51 52 52 53 53 53 53 53 52 52 51
36 36 37 37 38 38 39 39 40 40 41 42 42 43 43 43 44 44 45 45 46 46 46 47 47 47 47 47 48 48 48 48 48 48 49 49 49 50 50 50 50 51 51 51 52 52 52 52 52 51 51 50 50 50 50 50 51 51 52 52 52 53 53 53 52 51 51 50 49
36 36 37 37 38 39 39 40 40 41 41 42 43 43 44 44 44 45 45 46 46 46 46 47 47 47 47 48 48 48 48 49 49 49 49 49 50 50 50 50 51 51 51 51 52 52 52 51 51 51 50 50 49 49 50 50 51 52 52 52 52 52 52 52 51 50 49 48 47
36 37 37 38 38 39 40 40 41 41 42 42 43 44 44 44 45 45 46 46 46 46 47 47 47 48 48 48 48 48 49 49 49 49 49 49 50 50 50 50 51 51 51 51 51 51 51 51 51 50 50 49 49 49 50 50 51 52 52 52 52 52 51 51 50 49 47 46 45
Wind_Direction
282 284 286 288 289 291 292 293 294 295 296 296 296 296 296 296 296 296 296 296 296 297 297 297 298 299 300 300 301 302 302 303 303 303 303 303 303 304 304 304 304 303 303 303 303 303 303 302 302 302 302 302 302 302 302 302 302 302 302 302 302 301 301 301 300 300 300 299 299
283 285 287 288 290 291 293 294 295 295 296 296 296 296 296 296 296 296 296 296 296 297 297 298 299 299 300 301 301 302 302 303 303 303 303 303 303 303 303 303 303 303 303 303 303 302 302 302 302 302 302 302 302 302 302 302 302 302 302 302 302 301 301 301 300 300 300 299 299
283 285 287 288 290 291 292 293 294 295 295 295 295 295 295 295 296 296 296 296 297 297 298 298 299 300 300 301 302 302 302 302 303 303 303 303 303 303 303 303 303 303 303 303 302 302 302 302 302 302 302 302 302 302 302 302 302 302 302 302 302 301 301 301 301 300 300 300 300
283 285 286 288 289 291 292 293 293 294 294 295 295 295 295 295 296 296 296 297 297 297 298 299 299 300 301 301 301 302 302 302 302 302 302 303 303 303 303 303 303 303 303 303 303 303 303 303 303 302 303 303 303 303 303 303 302 302 302 302 302 302 302 301 301 301 301 300 300
283 284 286 287 289 290 291 292 293 293 294 294 294 294 295 295 295 296 296 296 297 297 298 298 299 300 300 301 301 301 302 302 302 302 302 302 303 303 303 303 303 303 303 303 303 303 303 303 303 303 303 303 303 303 303 303 303 303 303 303 302 302 302 302 302 301 301 301 301
282 284 286 287 289 290 291 292 292 292 293 293 293 294 294 295 295 295 296 296 296 297 298 298 299 299 300 300 301 301 302 302 302 302 302 302 302 303 303 303 303 303 303 303 303 303 303 303 303 303 303 303 303 303 303 303 303 303 303 303 303 303 303 303 303 302 302 301 301
282 284 286 287 289 290 290 291 291 292 292 292 293 293 293 294 294 295 295 296 296 297 298 298 299 299 300 300 301 301 301 302 302 302 302 302 303 303 303 303 303 303 304 304 304 304 304 304 304 304 304 304 304 304 304 304 304 304 304 304 304 304 304 303 303 303 302 302 301
283 285 286 287 288 289 290 290 290 291 291 292 292 292 293 293 294 294 295 296 296 297 297 298 299 299 300 300 301 301 302 302 302 302 302 303 303 303 303 303 304 304 304 304 304 304 304 304 304 304 304 304 304 305 305 305 305 305 305 305 304 304 304 304 303 303 303 302 302
284 285 286 287 288 289 289 290 290 290 291 291 292 292 292 293 294 294 295 296 296 297 298 298 299 299 300 301 301 302 302 302 302 302 303 303 303 303 304 304 304 304 304 304 304 304 304 304 305 305 305 305 305 305 305 305 305 305 305 305 305 304 304 304 304 303 303 302 302
284 285 286 287 288 288 289 289 290 290 291 291 292 292 293 293 294 294 295 296 296 297 298 299 299 300 301 301 302 302 302 302 303 303 303 303 304 304 304 304 304 305 305 305 305 305 305 305 305 305 305 305 306 306 306 306 305 305 305 305 305 304 304 304 304 303 303 303 302
284 285 286 287 287 288 289 289 290 290 291 291 292 292 293 293 294 295 295 296 297 298 298 299 300 301 301 302 302 302 302 303 303 303 303 304 304 304 304 304 305 305 305 305 305 305 305 306 306 306 306 306 306 306 306 306 305 305 305 305 305 304 304 304 304 304 303 303 303
284 285 286 287 287 288 289 289 290 290 291 291 292 292 293 294 294 295 296 297 298 298 299 300 301 301 302 302 302 302 303 303 303 303 304 304 304 304 305 305 305 305 305 305 306 306 306 306 306 306 306 306 306 306 306 306 305 305 305 305 305 304 304 304 304 304 304 304 303
284 285 286 287 287 288 289 289 290 290 291 291 292 293 293 294 295 296 297 297 298 299 300 301 301 302 302 302 302 303 303 303 303 304 304 304 304 305 305 305 305 306 306 306 306 306 306 306 306 306 306 306 306 306 306 305 305 305 305 305 305 305 305 305 305 305 304 304 304
284 285 286 287 288 288 289 289 290 290 291 292 292 293 294 295 295 296 297 298 299 300 300 301 302 302 302 302 302 303 303 303 303 304 304 304 304 305 305 305 306 306 306 306 306 306 307 306 306 306 306 306 306 306 305 305 305 305 305 305 305 305 305 305 305 305 305 305 304
284 285 286 287 288 288 289 289 290 291 291 292 293 294 294 295 296 297 298 299 299 300 301 301 302 302 302 302 303 303 303 303 304 304 304 304 305 305 305 306 306 306 306 306 307 307 307 306 306 306 306 306 306 306 306 305 305 305 305 305 305 306 306 305 305 305 305 305 305
285 286 287 287 288 288 289 289 290 291 292 292 293 294 295 296 297 298 298 299 300 301 301 301 302 302 302 303 303 303 303 303 304 304 304 305 305 305 305 306 306 306 306 307 307 307 307 306 306 306 306 306 306 306 306 306 306 306 306 306 306 306 306 306 306 305 305 305 305
285 286 286 287 288 288 289 290 290 291 292 293 294 295 296 296 297 298 299 300 300 301 301 302 302 302 302 303 303 303 303 304 304 304 304 305 305 305 306 306 306 306 306 307 307 307 307 306 306 306 306 306 306 306 306 306 306 306 306 306 306 306 306 306 306 306 305 305 305
285 286 286 287 288 288 289 290 291 292 292 293 294 295 296 297 298 299 299 300 300 301 301 301 302 302 302 303 303 303 304 304 304 304 305 305 305 305 306 306 306 306 307 307 307 307 307 307 307 307 307 307 306 307 307 307 307 307 307 307 307 306 306 306 306 305 305 305 304
285 285 286 287 288 288 289 290 291 292 293 294 295 296 296 297 298 299 299 300 300 301 301 301 302 302 302 303 303 303 304 304 304 305 305 305 305 306 306 306 306 306 307 307 307 307 307 307 307 307 307 307 307 307 307 307 307 307 307 307 307 307 306 306 306 305 305 304 304
284 285 286 287 288 289 290 290 291 292 293 294 295 296 297 297 298 299 300 300 300 301 301 301 302 302 303 303 303 304 304 304 304 305 305 305 306 306 306 306 306 307 307 307 307 307 307 307 307 307 307 307 307 307 307 307 307 307 307 307 307 307 306 306 305 305 304 304 304
284 285 286 287 288 289 290 291 292 293 294 294 295 296 297 298 298 299 299 300 300 301 301 301 302 302 303 303 303 304 304 304 305 305 305 305 306 306 306 306 307 307 307 307 307 307 307 307 308 308 308 308 308 308 308 308 308 308 307 307 307 306 306 306 305 305 304 304 303
284 286 287 288 289 290 291 292 292 293 294 295 295 296 297 298 298 299 299 300 301 301 301 301 302 302 303 303 303 304 304 305 305 305 305 306 306 306 306 307 307 307 307 307 307 308 308 308 308 308 308 308 308 308 308 308 308 307 307 307 306 306 306 305 305 305 304 304 303
285 286 287 289 290 290 291 292 293 293 294 295 296 296 297 298 299 299 300 300 301 301 301 302 302 302 303 303 304 304 304 305 305 305 306 306 306 306 307 307 307 307 307 308 308 308 308 308 308 308 308 308 308 308 308 308 307 307 307 307 306 306 306 305 305 305 304 304 304
286 287 288 289 290 291 291 292 293 294 294 295 296 297 298 298 299 299 300 300 301 301 301 302 302 303 303 304 304 304 305 305 305 306 306 306 306 307 307 307 307 307 308 308 308 308 308 308 308 308 308 308 308 308 308 307 307 307 307 307 306 306 306 305 305 305 304 304 304
287 288 289 290 290 291 292 292 293 294 295 296 296 297 298 299 299 300 300 300 301 301 302 302 303 303 303 304 304 304 305 305 305 306 306 306 307 307 307 307 308 308 308 308 308 308 308 309 309 309 309 308 308 308 308 308 307 307 307 307 307 306 306 306 305 305 305 304 304
287 288 289 290 291 291 292 293 293 294 295 296 297 298 298 299 299 300 300 300 301 301 302 302 303 303 304 304 304 305 305 305 306 306 306 307 307 307 307 308 308 308 308 308 308 308 309 309 309 309 309 309 308 308 308 308 308 308 307 307 307 306 306 306 306 305 305 305 305
288 289 289 290 291 292 292 293 294 295 296 297 297 298 298 299 299 300 300 300 301 302 302 303 303 303 304 304 305 305 305 306 306 306 307 307 307 307 308 308 308 308 308 308 309 309 309 309 309 309 309 309 309 308 308 308 308 308 308 307 307 307 306 306 306 306 306 306 305
288 289 290 291 291 292 293 294 295 296 296 297 298 298 298 299 299 300 300 301 301 302 302 303 303 304 304 305 305 305 306 306 306 307 307 307 307 307 308 308 308 308 308 309 309 309 309 309 309 309 309 309 309 309 309 308 308 308 308 307 307 307 306 306 306 306 306 306 306
289 289 290 291 292 293 294 295 295 296 297 297 298 298 298 299 299 300 300 301 302 302 303 303 304 304 304 305 305 306 306 306 307 307 307 307 307 307 308 308 308 308 309 309 309 309 309 309 309 309 310 310 309 309 309 309 308 308 308 308 307 307 307 307 307 307 307 307 307
289 290 291 292 292 293 294 295 296 296 297 297 298 298 298 299 299 300 301 301 302 302 303 303 304 304 305 305 305 306 306 306 307 307 307 307 307 308 308 308 308 309 309 309 309 309 309 309 310 310 310 310 310 309 309 309 309 308 308 308 307 307 307 307 307 307 307 307 307
290 291 292 292 293 294 295 295 296 296 297 297 298 298 299 299 300 300 301 301 302 302 303 304 304 304 305 305 306 306 306 307 307 307 307 307 307 308 308 308 308 309 309 309 309 309 310 310 310 310 310 310 310 310 309 309 309 308 308 308 308 308 308 308 308 308 308 307 307
291 292 292 293 294 294 295 296 296 296 297 297 298 298 299 299 300 300 301 302 302 303 303 304 304 305 305 306 306 306 306 307 307 307 307 307 307 308 308 308 309 309 309 309 309 310 310 310 310 310 310 310 310 310 309 309 309 309 308 308 308 308 308 308 308 308 308 308 308
291 292 293 294 294 295 295 296 296 296 297 297 298 298 299 299 300 301 301 302 302 303 303 304 304 305 305 306 306 306 306 306 307 307 307 307 307 308 308 308 309 309 309 309 310 310 310 310 311 311 311 311 310 310 310 309 309 309 309 309 309 308 308 308 308 308 308 308 308
292 293 294 294 295 295 295 296 296 297 297 297 298 298 299 300 300 301 302 302 303 303 304 304 304 305 305 305 306 306 306 306 307 307 307 307 308 308 308 308 309 309 310 310 310 310 310 311 311 311 311 311 311 310 310 310 310 309 309 309 309 309 309 309 309 308 308 308 308
293 294 294 295 295 295 295 296 296 297 297 298 298 299 299 300 301 301 302 302 303 303 304 304 305 305 305 305 306 306 306 306 307 307 307 308 308 308 308 309 309 309 310 310 310 310 311 311 311 311 311 311 311 310 310 310 310 310 309 309 309 309 309 309 309 309 309 309 308
294 294 294 295 295 295 296 296 296 297 298 298 298 299 300 300 301 302 302 303 303 304 304 304 305 305 305 305 306 306 306 306 307 307 307 308 308 308 308 309 309 310 310 310 310 311 311 311 311 311 311 311 311 311 311 310 310 310 310 310 309 309 310 310 310 309 309 309 309
294 294 295 295 295 296 296 296 297 297 298 298 299 299 300 301 302 302 303 303 304 304 304 304 305 305 305 305 306 306 306 307 307 307 308 308 308 308 309 309 309 310 310 310 310 311 311 311 311 311 311 311 311 311 311 310 310 310 310 310 310 310 310 310 310 310 310 309 309
294 294 295 295 296 296 296 297 297 298 298 298 299 300 301 301 302 302 303 303 303 304 304 304 304 305 305 305 306 306 306 307 307 307 308 308 308 309 309 309 309 310 310 310 310 311 311 311 311 311 311 311 311 311 311 311 311 310 310 310 310 310 310 310 310 310 310 310 309
295 295 295 295 296 296 297 297 297 298 298 299 300 301 301 302 302 303 303 303 303 303 304 304 304 305 305 305 306 306 306 307 307 307 308 308 308 309 309 309 309 310 310 310 310 311 311 311 311 311 311 311 311 311 311 311 311 311 311 311 311 311 311 311 311 310 310 310 310
295 295 296 296 296 297 297 297 298 298 299 300 300 301 301 302 302 303 303 303 303 303 304 304 304 305 305 305 306 306 306 307 307 308 308 308 308 309 309 309 309 310 310 310 310 311 311 311 311 311 311 311 311 311 311 311 311 311 311 311 311 311 311 311 311 311 310 310 310
296 296 296 296 297 297 297 298 298 299 300 300 301 301 302 302 302 303 303 303 303 304 304 304 305 305 305 305 306 306 306 307 307 308 308 308 308 309 309 309 309 309 310 310 310 311 311 311 311 311 311 311 311 311 311 311 311 312 312 312 312 311 311 311 311 311 311 310 310